[[{"header":{"parameterUnit":"m.s-1","parameterCategory":1,"la1":30.2991,"la2":30.254,"lo1":-89.0895,"lo2":-89.0444,"dy":0.0017,"dx":0.0017,"nx":28,"ny":28,"refTime":"2023-09-06T21:00:00:Z","depth":0,"parameterNumber":2,"parameterNumberName":"U-component_of_WINDS"},"data":[0,0,0,0,0,0,0,0,0,0,0,0,0,0,0,0,0,0,0,0,0,0,0,0,0,0,0,0,0,0,0,0,0,0,0,0,0,0,0,0,0,0,0,0,0,0,0,0,0,0,0,0,0,0,0,0,0,0,-1.0137,-1.0137,0,-1.0139,-1.0139,-1.0139,-1.0111,-1.011,-1.0109,-1.0109,-1.0112,-1.0112,-1.0113,0,0,0,0,0,0,0,0,0,0,0,0,0,-1.0112,-1.0112,-1.0137,-1.0137,-1.0137,-1.0139,-1.0139,-1.0139,-1.0111,-1.011,-1.0109,-1.0108,-1.0111,-1.0112,-1.0113,0,0,0,0,0,0,0,0,0,0,0,0,0,-1.0119,-1.0113,-1.0137,-1.0123,-1.0122,-1.0139,-1.0139,-1.0139,-1.0111,-1.011,-1.0109,-1.0108,-1.0111,-1.0112,-1.0113,-1.0144,0,0,-1.0117,-1.0117,0,0,0,0,0,0,0,0,-1.0119,-1.012,-1.0125,-1.0124,-1.0123,-1.0123,-1.0131,-1.014,-1.0111,-1.0115,-1.0109,-1.0107,-1.0116,-1.0117,-1.012,-1.0144,-1.0144,-1.0117,-1.0118,-1.0118,-1.0119,0,0,0,0,0,0,0,-1.0118,-1.012,-1.0138,-1.0126,-1.0124,-1.0118,-1.0118,-1.0133,-1.0122,-1.0115,-1.0113,-1.0113,-1.0116,-1.0119,-1.012,-1.0144,-1.0117,-1.0118,-1.0119,-1.0119,-1.0193,-1.0195,0,0,0,0,0,0,-1.0119,-1.012,-1.0138,-1.0138,-1.0118,-1.0119,-1.0119,-1.0124,-1.0122,-1.0121,-1.0114,-1.0112,-1.0117,-1.0119,-1.012,-1.0156,-1.0118,-1.0119,-1.012,-1.0192,-1.0194,-1.0195,0,0,0,0,0,0,-1.0119,-1.0121,-1.0138,-1.0128,-1.013,-1.0121,-1.0127,-1.0125,-1.0128,-1.0122,-1.012,-1.012,-1.0117,-1.0118,-1.0138,-1.0155,-1.012,-1.0121,-1.0191,-1.0193,-1.0194,-1.0228,0,0,0,0,0,0,-1.0118,-1.0121,-1.0132,-1.0129,-1.013,-1.0155,-1.0128,-1.0126,-1.013,-1.0127,-1.0126,-1.0125,-1.0116,-1.0136,-1.0139,-1.0156,-1.0122,-1.0189,-1.0191,-1.0194,-1.0225,-1.023,-1.0235,0,0,0,0,0,-1.0118,-1.0142,-1.0133,-1.0135,-1.0144,-1.0156,-1.0158,-1.0146,-1.0132,-1.0143,-1.0139,-1.0125,-1.0153,-1.0139,-1.0142,-1.0159,-1.0188,-1.0191,-1.0194,-1.0223,-1.0229,-1.0235,0,0,0,0,0,0,-1.0148,-1.0141,-1.0131,-1.0155,-1.0156,-1.0152,-1.0166,-1.0154,-1.016,-1.0157,-1.0143,-1.0143,-1.0165,-1.0164,-1.0148,-1.0189,-1.0168,-1.0172,-1.0189,-1.0195,-1.02,-1.02,-1.0123,0,0,0,0,0,-1.0157,-1.0168,-1.0161,-1.0183,-1.0184,-1.0175,-1.018,-1.0171,-1.0172,-1.0173,-1.017,-1.0173,-1.0182,-1.0188,-1.0197,-1.0224,-1.0224,-1.0238,-1.0243,-1.0248,-1.0251,-1.0266,-1.0273,-1.0204,-1.0204,-1.0204,0,0,-1.0177,-1.0174,-1.0182,-1.0189,-1.0189,-1.0201,-1.0175,-1.0189,-1.0197,-1.0175,-1.0194,-1.0192,-1.0194,-1.0218,-1.0228,-1.0217,-1.027,-1.0251,-1.0255,-1.0256,-1.027,-1.0277,-1.0282,-1.0206,-1.0206,-1.0206,0,0,-1.0219,-1.0218,-1.0236,-1.0237,-1.0237,-1.0231,-1.0235,-1.0232,-1.023,-1.0249,-1.0232,-1.0243,-1.0259,-1.0261,-1.0264,-1.0308,-1.0295,-1.0311,-1.0338,-1.0353,-1.0358,-1.0363,-1.0379,-1.0385,-1.0314,-1.0314,-1.0314,0,-1.0244,-1.026,-1.0247,-1.0261,-1.0265,-1.0245,-1.0264,-1.0265,-1.0269,-1.0272,-1.026,-1.028,-1.028,-1.0305,-1.0316,-1.0318,-1.0324,-1.0311,-1.0358,-1.0363,-1.0367,-1.0383,-1.0389,-1.0316,-1.0316,-1.0316,-1.0315,0,-1.0291,-1.0302,-1.0317,-1.032,-1.0326,-1.0342,-1.0332,-1.034,-1.0331,-1.0326,-1.0345,-1.0344,-1.0352,-1.0357,-1.0349,-1.0381,-1.0375,-1.0361,-1.0339,-1.0376,-1.039,-1.0396,-1.0319,-1.0318,-1.0318,-1.0317,0,0,-1.0352,-1.0348,-1.0354,-1.0356,-1.0355,-1.0364,-1.038,-1.0387,-1.0394,-1.0397,-1.0411,-1.0425,-1.0413,-1.0416,-1.0408,-1.0421,-1.0456,-1.0405,-1.0405,-1.0416,-1.0493,-1.0504,-1.0511,-1.0448,-1.0449,-1.045,-1.0493,0,-1.0394,-1.042,-1.0409,-1.0437,-1.0448,-1.0429,-1.0443,-1.0445,-1.0441,-1.045,-1.0446,-1.0457,-1.0438,-1.0441,-1.0453,-1.0449,-1.0472,-1.0446,-1.0461,-1.0462,-1.0462,-1.0518,-1.053,-1.0571,-1.0499,-1.05,-1.05,0,-1.0446,-1.0451,-1.048,-1.0477,-1.0482,-1.0494,-1.0501,-1.0509,-1.0511,-1.0507,-1.0512,-1.05,-1.0516,-1.0495,-1.0517,-1.05,-1.0506,-1.0505,-1.0506,-1.0508,-1.0484,-1.0523,-1.0584,-1.0591,-1.0509,-1.0508,-1.0507,0,-1.0489,-1.0503,-1.0522,-1.0524,-1.0522,-1.0531,-1.0531,-1.0531,-1.0536,-1.0542,-1.0546,-1.0553,-1.0558,-1.0564,-1.0555,-1.054,-1.058,-1.0557,-1.0578,-1.0578,-1.0588,-1.0587,-1.0652,-1.059,-1.059,-1.059,-1.0589,0,-1.0537,-1.0556,-1.0542,-1.0554,-1.0574,-1.0561,-1.0582,-1.058,-1.058,-1.0592,-1.0576,-1.0588,-1.0575,-1.0586,-1.0579,-1.0599,-1.0601,-1.0599,-1.0597,-1.0601,-1.0601,-1.0605,-1.0602,-1.0591,-1.0591,-1.0591,-1.059,0,-1.0589,-1.058,-1.06,-1.0596,-1.0596,-1.0611,-1.0608,-1.062,-1.0614,-1.0629,-1.0632,-1.0625,-1.0636,-1.0628,-1.0639,-1.0635,-1.0662,-1.0655,-1.0661,-1.066,-1.0682,-1.068,-1.0752,-1.0761,-1.0692,-1.0692,-1.0693,0,-1.0621,-1.0635,-1.0632,-1.0639,-1.0639,-1.065,-1.0655,-1.0643,-1.065,-1.0652,-1.0664,-1.0674,-1.0681,-1.0701,-1.0697,-1.0705,-1.07,-1.0724,-1.0701,-1.0705,-1.0701,-1.0701,-1.0703,-1.0729,-1.073,-1.0731,-1.0731,0,-1.0679,-1.0674,-1.0682,-1.0689,-1.0695,-1.07,-1.0704,-1.071,-1.0698,-1.0706,-1.0717,-1.0723,-1.0735,-1.0745,-1.0753,-1.0753,-1.0741,-1.0738,-1.0744,-1.0748,-1.0752,-1.0751,-1.0675,-1.0737,-1.0737,-1.0736,-1.0736,-1.0736,-1.0723,-1.0735,-1.0735,-1.0744,-1.0745,-1.0749,-1.076,-1.0756,-1.0765,-1.0773,-1.0765,-1.0779,-1.0781,-1.0789,-1.0791,-1.0802,-1.0792,-1.08,-1.0802,-1.0805,-1.0808,-1.0749,-1.0804,-1.0803,-1.0803,-1.0803,-1.0803,0,-1.0781,-1.078,-1.0789,-1.0794,-1.0802,-1.0788,-1.0792,-1.0799,-1.0812,-1.0814,-1.0821,-1.0835,-1.0845,-1.0841,-1.0851,-1.086,-1.0855,-1.0863,-1.0863,-1.0863,-1.0816,-1.0811,-1.0868,-1.0868,-1.0868,-1.0867,-1.0867,-1.0867,-1.0812,-1.0831,-1.0826,-1.0846,-1.0845,-1.0858,-1.0862,-1.0865,-1.0867,-1.0882,-1.0891,-1.0888,-1.0888,-1.0897,-1.0906,-1.0905,-1.091,-1.092,-1.0917,-1.0873,-1.0867,-1.0861,-1.0856,-1.0921,-1.0921,-1.0964,-1.0964,-1.0964]},{"header":{"parameterUnit":"m.s-1","parameterCategory":1,"la1":30.2991,"la2":30.254,"lo1":-89.0895,"lo2":-89.0444,"dy":0.0017,"dx":0.0017,"nx":28,"ny":28,"refTime":"2023-09-06T21:00:00:Z","depth":0,"parameterNumber":3,"parameterNumberName":"V-component_of_WINDS"},"data":[0,0,0,0,0,0,0,0,0,0,0,0,0,0,0,0,0,0,0,0,0,0,0,0,0,0,0,0,0,0,0,0,0,0,0,0,0,0,0,0,0,0,0,0,0,0,0,0,0,0,0,0,0,0,0,0,0,0,5.1126,5.1126,0,5.1125,5.1125,5.1125,5.1074,5.1073,5.1072,5.107,5.1068,5.1069,5.107,0,0,0,0,0,0,0,0,0,0,0,0,0,5.1085,5.1086,5.1126,5.1126,5.1126,5.1125,5.1125,5.1125,5.1074,5.1073,5.1071,5.107,5.1068,5.1069,5.107,0,0,0,0,0,0,0,0,0,0,0,0,0,5.1095,5.1086,5.1126,5.1101,5.1099,5.1125,5.1125,5.1125,5.1075,5.1073,5.1071,5.1069,5.1067,5.1069,5.1071,5.1121,0,0,5.1076,5.1077,0,0,0,0,0,0,0,0,5.1094,5.1096,5.1105,5.1103,5.11,5.1098,5.1109,5.1123,5.1075,5.1084,5.107,5.1068,5.1079,5.108,5.1084,5.1121,5.112,5.1076,5.1077,5.1078,5.1078,0,0,0,0,0,0,0,5.1094,5.1096,5.1125,5.1105,5.1102,5.1089,5.1089,5.1112,5.1093,5.1083,5.1079,5.108,5.1078,5.1083,5.1084,5.112,5.1076,5.1078,5.1079,5.1079,5.1199,5.1201,0,0,0,0,0,0,5.1097,5.1096,5.1126,5.1125,5.1092,5.1092,5.1091,5.11,5.1092,5.1089,5.1082,5.1078,5.1081,5.1082,5.1083,5.1141,5.1078,5.1079,5.108,5.1196,5.1199,5.1201,0,0,0,0,0,0,5.1096,5.11,5.1126,5.111,5.1112,5.1095,5.1106,5.1101,5.1106,5.1091,5.1087,5.109,5.1079,5.1081,5.1112,5.114,5.108,5.1082,5.1194,5.1197,5.12,5.1258,0,0,0,0,0,0,5.1095,5.11,5.1118,5.1111,5.1113,5.1154,5.1107,5.1103,5.1109,5.1104,5.1098,5.1095,5.1078,5.111,5.1114,5.1142,5.1083,5.1191,5.1195,5.1199,5.1253,5.1262,5.127,0,0,0,0,0,5.1094,5.1134,5.112,5.1123,5.1136,5.1156,5.1157,5.1137,5.1112,5.113,5.1121,5.1095,5.1137,5.1113,5.1117,5.1146,5.1189,5.1194,5.1199,5.1249,5.126,5.127,0,0,0,0,0,0,5.1144,5.1132,5.1116,5.1155,5.1157,5.1147,5.117,5.1149,5.1158,5.1152,5.1126,5.1126,5.1161,5.1157,5.113,5.1195,5.1159,5.1165,5.1196,5.1206,5.1215,5.1214,5.1085,0,0,0,0,0,5.1161,5.1178,5.1167,5.1202,5.1204,5.1187,5.1195,5.118,5.118,5.118,5.1173,5.1174,5.1188,5.1197,5.1209,5.1253,5.1251,5.1275,5.1284,5.1291,5.1296,5.1319,5.133,5.1217,5.1217,5.1217,0,0,5.1193,5.1189,5.1201,5.1213,5.1212,5.123,5.1188,5.1209,5.1222,5.1183,5.1212,5.1207,5.1207,5.1245,5.1262,5.1243,5.1327,5.1297,5.1303,5.1304,5.1325,5.1336,5.1345,5.122,5.122,5.1219,0,0,5.1262,5.1261,5.1291,5.1292,5.1292,5.1281,5.1288,5.1282,5.1278,5.1307,5.1278,5.1294,5.1317,5.1318,5.1322,5.1394,5.1371,5.1399,5.1443,5.1466,5.1475,5.1483,5.1508,5.1517,5.1404,5.1404,5.1404,0,5.1302,5.1329,5.1308,5.1332,5.1338,5.1305,5.1335,5.1337,5.1341,5.1345,5.1325,5.1355,5.1352,5.139,5.1408,5.1413,5.142,5.1398,5.1476,5.1483,5.149,5.1514,5.1523,5.1408,5.1407,5.1407,5.1407,0,5.1379,5.1398,5.1422,5.1428,5.1437,5.1463,5.1447,5.1458,5.1443,5.1434,5.1464,5.1461,5.1471,5.1479,5.1464,5.1515,5.1504,5.148,5.1443,5.1505,5.1526,5.1535,5.1413,5.1411,5.141,5.1409,0,0,5.1477,5.1473,5.1482,5.1484,5.1483,5.1498,5.1524,5.1535,5.1545,5.155,5.157,5.1592,5.1571,5.1575,5.156,5.158,5.1637,5.1554,5.1554,5.1569,5.1694,5.171,5.1721,5.1623,5.1624,5.1626,5.1693,0,5.1543,5.1586,5.1569,5.1614,5.1632,5.1602,5.1625,5.1627,5.162,5.1634,5.1626,5.1642,5.1613,5.1615,5.1634,5.1626,5.1662,5.1622,5.1641,5.1642,5.164,5.1733,5.175,5.1814,5.1702,5.1703,5.1704,0,5.1624,5.1634,5.1681,5.1678,5.1685,5.1705,5.1714,5.1729,5.1731,5.1724,5.1731,5.1711,5.1736,5.1701,5.1735,5.1708,5.1716,5.1713,5.1715,5.1715,5.1675,5.1733,5.1834,5.1843,5.1718,5.1716,5.1716,0,5.169,5.1715,5.1746,5.1749,5.1747,5.1762,5.1762,5.1762,5.177,5.1779,5.1784,5.1795,5.1801,5.181,5.1795,5.1771,5.1831,5.1794,5.1826,5.1826,5.1838,5.1837,5.1939,5.1845,5.1845,5.1845,5.1845,0,5.1765,5.1794,5.1775,5.1795,5.1827,5.1808,5.1841,5.1838,5.1839,5.1856,5.1832,5.1849,5.1828,5.1843,5.1832,5.1862,5.1865,5.186,5.1856,5.1861,5.1862,5.1864,5.1859,5.1848,5.1847,5.1847,5.1846,0,5.1842,5.1831,5.1863,5.186,5.186,5.1884,5.188,5.1898,5.189,5.1913,5.1918,5.1906,5.1922,5.1909,5.1925,5.1917,5.1956,5.1947,5.1956,5.1952,5.1984,5.1981,5.2091,5.2104,5.2003,5.2004,5.2004,0,5.189,5.1912,5.1911,5.1922,5.1924,5.1941,5.195,5.1933,5.1943,5.1948,5.1965,5.198,5.1991,5.202,5.2012,5.2025,5.2015,5.2052,5.2016,5.2021,5.2014,5.2012,5.2014,5.2059,5.206,5.2061,5.2062,0,5.1975,5.1969,5.1982,5.1995,5.2007,5.2015,5.2022,5.2032,5.2015,5.2028,5.2045,5.2054,5.2072,5.2087,5.2097,5.2096,5.2076,5.2074,5.2081,5.2086,5.209,5.2087,5.1974,5.2071,5.207,5.2069,5.2069,5.2068,5.2038,5.2057,5.206,5.2076,5.208,5.2087,5.2104,5.2099,5.2114,5.2127,5.2117,5.2138,5.214,5.2152,5.2155,5.2171,5.2155,5.2166,5.2169,5.2172,5.2176,5.2089,5.2173,5.2172,5.2172,5.2172,5.2172,0,5.2121,5.2122,5.2137,5.2148,5.2162,5.2144,5.2151,5.2163,5.2182,5.2187,5.2199,5.2219,5.2234,5.2229,5.2243,5.2256,5.2248,5.226,5.2258,5.2259,5.2189,5.2181,5.2267,5.2267,5.2267,5.2267,5.2267,5.2267,5.2165,5.2196,5.2191,5.2224,5.2224,5.2245,5.2251,5.2258,5.2262,5.2286,5.2299,5.2296,5.2297,5.231,5.2323,5.2322,5.2327,5.2343,5.2338,5.2273,5.2263,5.2254,5.2246,5.2345,5.2345,5.2405,5.2406,5.2406]}]]